Location: Newark
(41.0400°S, 62.7845°W)
Time: 03:25:24
(UTC+00:00)

Transit 2A - Pass Details

Date: 03 December 2021
Orbit: 591 x 967 km, 66.7° (Epoch: 20 January)

Event Time Altitude Azimuth Distance (km) Brightness Sun altitude
Rises 00:25:11 0° 200° (SSW) 2,867 10.1 -9.5°
Reaches altitude 10° 00:27:46 10° 185° (S) 1,960 8.9 -9.8°
Maximum altitude 00:31:23 25° 130° (SE) 1,264 7.1 -10.3°
Enters shadow 00:34:46 11° 76° (ENE) 1,913 7.5 -10.8°
Drops below altitude 10° 00:35:04 10° 74° (ENE) 2,007 - -10.9°
Sets 00:37:44 0° 60° (ENE) 2,953 - -11.2°
